Wind_Speed
20 28 32 31 31 31 29 27 24 21 18 16 13 11 9 5 1 10 17 15 14 15 16 14 12 10 7 4 5 5 3 3 4 5 6 7 8 9 10 12 12 12 11 8 5
15 18 23 30 32 32 30 29 26 24 20 18 15 13 10 8 4 6 16 19 16 14 15 16 15 11 6 2 4 5 5 10 3 5 7 10 10 10 12 13 13 13 15 10 6
17 16 17 21 24 29 32 30 28 25 21 19 17 15 12 10 8 8 14 18 19 15 14 16 15 10 3 7 7 9 8 3 3 6 7 10 11 8 10 11 11 13 13 9 5
19 16 14 14 15 21 28 32 30 27 23 20 18 17 15 12 13 13 13 18 21 18 17 16 15 12 10 10 12 9 12 8 6 8 9 10 9 8 4 6 13 15 11 9 5
23 22 18 17 16 13 18 27 29 30 26 23 18 18 17 15 14 16 15 16 21 20 18 16 15 14 12 12 14 12 11 11 9 7 8 8 7 7 5 8 11 11 10 9 5
25 24 23 20 17 18 14 13 21 27 26 25 22 18 19 18 16 17 17 17 18 21 19 18 16 16 14 12 14 13 10 10 7 6 8 6 6 6 7 8 10 11 11 8 8
27 26 25 23 20 19 19 14 17 22 24 22 22 21 20 18 18 17 18 18 19 21 22 20 19 16 14 13 13 13 11 9 8 8 8 7 6 6 6 6 9 10 9 11 9
29 28 27 25 23 20 18 17 14 19 21 21 21 21 21 20 19 16 17 19 20 21 23 22 19 17 16 15 14 12 12 12 10 8 7 7 8 8 6 6 7 10 11 10 7
31 30 30 28 26 22 20 19 17 15 21 22 22 21 23 22 20 19 17 18 20 20 22 23 22 18 18 14 15 13 11 14 10 9 9 7 10 9 9 8 10 11 10 8 6
29 31 32 29 28 25 22 21 20 18 17 21 19 19 22 22 21 21 18 17 19 20 22 21 22 19 17 12 8 15 13 15 15 11 11 11 12 10 12 11 11 11 11 10 9
35 32 30 32 29 28 25 23 22 21 19 19 16 17 16 20 21 22 20 18 18 20 21 22 21 18 17 15 17 14 13 16 16 15 14 14 13 14 14 14 14 13 12 13 12
38 36 34 30 32 29 28 26 24 23 23 21 20 18 18 21 23 22 22 21 18 19 21 20 20 22 21 20 17 16 17 16 18 16 15 15 14 15 16 17 14 14 15 16 14
42 40 37 35 31 32 30 29 27 25 25 23 23 20 18 20 23 25 20 22 21 21 20 24 24 20 22 21 19 18 18 18 18 17 15 14 13 15 19 19 16 17 18 17 17
44 45 40 38 36 33 33 31 29 27 27 27 26 25 21 20 24 22 23 20 21 22 24 25 24 21 22 22 22 19 21 20 19 16 10 11 7 14 20 21 19 20 19 18 19
47 48 45 42 37 37 34 33 31 28 31 31 28 20 22 23 17 23 23 22 20 23 25 25 21 22 23 24 23 25 19 20 19 18 18 16 15 14 21 23 22 20 20 22 22
47 48 48 47 43 38 37 35 33 32 35 31 28 25 23 22 20 21 24 24 24 23 24 25 22 23 26 22 25 21 20 20 19 19 17 16 16 8 24 22 21 22 23 24 25
47 46 46 48 47 43 39 40 36 37 35 33 29 23 24 23 21 22 26 27 26 24 25 24 23 20 23 27 23 25 22 21 19 19 17 17 18 22 25 21 23 24 25 26 27
51 48 46 46 47 45 44 43 42 39 34 35 30 26 26 23 21 21 22 24 26 27 29 28 28 25 22 24 28 27 26 25 21 12 12 16 17 28 24 25 27 28 28 27 28
61 53 50 47 48 47 46 46 43 40 38 34 33 28 29 26 22 22 20 21 22 26 29 29 31 29 27 24 26 29 28 27 26 25 26 22 20 22 24 24 25 26 27 29 29
61 59 54 52 49 50 48 52 45 45 40 37 34 32 29 28 26 24 24 21 23 23 28 29 31 27 24 26 27 30 28 30 31 29 27 22 24 19 25 26 28 29 29 29 31
62 60 58 55 54 52 51 51 49 45 43 40 38 36 34 32 29 26 26 20 22 23 27 29 29 29 27 27 29 27 29 30 32 32 31 27 22 28 29 28 31 30 30 31 31
63 60 59 59 56 55 52 51 50 47 46 44 41 38 37 36 33 30 26 24 21 22 27 29 30 31 30 26 28 31 34 31 33 30 31 31 27 30 34 34 33 30 28 30 32
62 63 59 60 57 57 56 54 51 46 47 46 44 41 40 38 36 33 30 23 23 23 26 27 31 33 31 30 31 33 32 35 35 33 33 32 28 30 32 34 33 30 29 33 35
58 60 59 59 59 58 58 57 55 49 48 49 47 44 39 39 38 35 32 28 25 24 23 26 29 29 30 35 30 31 35 34 36 34 30 31 28 30 36 35 29 32 35 35 35
53 56 58 58 58 58 58 59 58 54 50 49 47 46 42 41 40 38 35 30 30 27 26 27 28 32 32 32 30 32 27 29 32 34 36 30 31 32 39 37 36 36 35 40 42
51 53 55 56 56 57 57 58 59 56 54 50 50 48 47 44 42 40 39 37 33 31 28 27 28 28 29 26 25 23 21 22 27 30 27 26 29 35 32 36 41 40 38 30 30
49 51 53 55 55 57 56 57 58 58 56 54 51 50 47 45 44 42 41 39 38 32 30 28 26 25 27 24 22 17 18 22 22 22 25 28 30 24 30 24 24 24 25 23 25
Wind_Direction
257 255 248 249 248 250 250 252 252 252 256 260 266 277 289 288 224 193 192 197 189 185 184 185 193 197 203 204 200 187 148 277 268 297 311 309 291 285 275 253 230 219 231 236 251
263 256 251 252 249 248 249 252 256 254 253 255 258 262 269 267 225 207 200 204 206 204 202 203 200 194 190 246 233 217 115 231 253 322 334 314 298 295 279 254 226 216 227 231 247
266 259 256 251 251 251 251 250 254 255 254 253 254 255 260 258 227 214 213 217 216 219 214 215 202 195 272 294 286 258 239 204 301 322 332 319 295 287 280 256 218 214 227 224 236
262 261 259 254 265 264 252 250 248 251 252 252 250 253 253 250 237 223 227 224 221 224 225 218 228 242 265 275 278 280 241 235 319 326 323 317 303 283 256 191 192 201 213 211 195
259 261 261 257 257 266 253 248 244 245 247 249 250 249 252 249 234 232 229 232 227 225 232 234 228 239 254 266 267 277 261 256 291 309 308 314 297 270 200 180 183 190 193 201 189
252 256 260 260 256 258 257 256 253 246 239 241 245 249 251 251 237 231 234 236 235 231 232 234 225 234 257 266 267 269 271 255 261 286 301 306 290 255 214 184 176 185 188 189 180
249 249 253 259 255 253 258 253 250 249 243 231 232 238 248 250 245 239 233 234 238 239 234 236 233 238 253 261 255 259 250 253 256 272 294 309 275 238 217 199 184 189 188 180 186
248 249 247 252 255 252 251 252 252 242 239 234 230 226 237 242 246 241 238 233 235 241 239 238 239 243 260 264 257 245 245 241 254 278 294 316 294 252 240 234 213 185 191 195 193
249 247 247 246 250 250 247 248 246 245 236 237 232 229 228 231 236 241 238 233 236 236 241 241 239 239 252 262 265 259 254 253 253 259 276 289 294 265 253 228 203 205 206 209 220
249 248 246 244 245 247 246 243 244 242 238 238 236 237 228 229 231 234 232 231 232 236 237 240 241 241 243 257 290 270 255 258 265 268 267 277 280 258 255 240 220 219 224 232 241
248 249 249 244 243 244 244 243 241 239 234 240 247 244 234 233 238 236 230 228 230 233 236 238 240 244 240 239 232 252 263 264 266 271 272 281 276 258 244 249 239 236 242 249 255
247 246 247 246 243 240 241 241 241 241 238 236 241 241 236 240 237 238 232 226 226 233 235 238 240 241 239 241 244 255 263 269 272 271 273 278 278 257 236 242 249 251 253 256 265
245 242 244 244 242 240 238 239 240 241 242 241 237 240 241 241 241 236 243 234 226 230 237 237 235 234 239 241 241 248 252 255 266 272 275 275 277 257 242 244 244 250 255 265 268
244 242 239 243 240 239 238 236 236 238 243 242 241 239 239 241 237 234 238 233 237 231 238 241 244 241 242 245 242 247 248 250 257 266 281 261 221 280 242 250 251 254 264 263 266
246 243 240 237 240 238 237 235 234 234 241 241 241 243 241 242 248 237 237 242 231 238 234 243 243 242 242 245 245 248 254 251 251 255 262 265 258 263 255 245 255 260 261 264 263
243 243 240 238 238 241 238 234 232 231 236 239 242 240 241 244 238 236 234 236 242 238 231 240 246 243 237 245 247 247 252 256 254 259 264 260 268 249 260 251 253 261 266 265 267
239 239 240 239 239 239 244 236 232 233 234 237 240 237 236 237 238 234 235 239 241 238 239 238 239 247 246 241 248 251 251 254 255 262 265 261 256 226 253 256 257 260 263 266 270
239 238 239 239 240 239 239 238 230 231 231 237 237 235 235 233 232 231 233 236 239 237 238 241 245 242 243 249 244 246 244 251 255 254 262 256 259 257 260 257 260 262 265 267 271
241 239 237 237 237 241 237 238 229 231 230 233 234 235 235 234 229 227 228 234 238 237 239 243 242 248 238 249 247 245 247 248 255 252 257 265 266 264 265 260 258 260 267 273 276
240 238 235 236 235 238 237 233 236 232 229 228 230 230 231 229 226 228 233 236 243 235 236 243 246 243 238 244 250 251 251 251 252 256 258 262 262 267 260 264 266 264 266 270 274
240 236 235 233 234 234 235 234 236 234 229 224 227 227 228 232 229 226 236 239 240 233 233 238 239 242 248 251 252 255 258 256 256 252 257 258 255 270 268 268 270 272 275 277 283
241 237 234 235 233 232 231 234 232 234 229 225 225 229 227 229 232 231 233 236 238 235 236 238 237 244 246 257 252 255 256 263 260 261 257 261 259 265 271 276 277 279 281 283 285
239 239 236 234 232 231 230 232 231 231 229 226 224 226 225 227 231 234 233 234 237 237 240 243 245 246 254 254 254 259 261 260 264 262 263 264 272 271 272 271 275 283 282 289 290
236 237 235 233 231 229 228 229 230 230 230 225 222 224 224 226 230 233 234 233 235 238 240 244 248 252 255 265 272 270 269 255 254 258 266 268 271 276 274 271 287 283 287 292 293
232 232 232 231 230 228 227 227 229 228 229 228 221 220 220 221 228 232 232 233 237 236 241 247 252 256 263 268 276 278 267 256 255 258 262 267 270 269 272 288 284 286 285 287 292
232 232 230 229 228 227 226 225 228 226 226 227 224 218 218 223 225 228 232 232 234 235 238 249 255 261 264 266 275 270 269 268 261 260 262 263 266 270 277 280 279 279 287 288 290
229 229 228 226 224 225 224 223 226 226 224 226 222 220 216 220 223 228 228 229 233 235 239 244 255 262 270 269 274 276 267 266 270 267 264 267 269 277 276 278 283 283 284 288 294
Height
5855 5857 5860 5862 5864 5865 5867 5869 5870 5871 5872 5873 5873 5873 5872 5872 5872 5872 5873 5873 5874 5874 5874 5874 5875 5876 5877 5878 5878 5879 5880 5885 5880 5879 5879 5878 5876 5874 5872 5872 5873 5874 5875 5874 5874
5853 5854 5855 5857 5859 5861 5862 5865 5866 5868 5869 5870 5871 5871 5870 5871 5870 5871 5872 5872 5872 5873 5873 5873 5873 5874 5876 5877 5879 5880 5883 5880 5880 5879 5878 5876 5873 5872 5870 5869 5870 5872 5873 5873 5874
5851 5851 5852 5853 5854 5856 5857 5859 5862 5864 5866 5867 5868 5869 5869 5869 5869 5869 5870 5870 5871 5872 5872 5872 5872 5873 5874 5875 5877 5879 5879 5879 5879 5878 5876 5874 5872 5870 5868 5867 5869 5871 5873 5873 5874
5848 5848 5849 5850 5851 5851 5853 5854 5857 5860 5862 5865 5865 5866 5867 5866 5868 5867 5868 5868 5869 5870 5870 5871 5873 5873 5875 5876 5876 5877 5877 5878 5877 5876 5875 5873 5871 5870 5867 5867 5867 5869 5872 5872 5872
5845 5845 5846 5848 5849 5848 5848 5850 5851 5854 5857 5861 5862 5863 5864 5865 5865 5865 5865 5866 5867 5868 5870 5870 5872 5873 5874 5874 5875 5875 5875 5876 5876 5875 5873 5871 5871 5869 5867 5866 5867 5868 5870 5871 5871
5841 5842 5843 5844 5845 5846 5846 5845 5846 5848 5851 5856 5859 5860 5861 5863 5862 5862 5863 5864 5865 5866 5868 5869 5870 5872 5872 5872 5872 5874 5874 5873 5874 5874 5873 5871 5870 5868 5867 5866 5867 5868 5868 5870 5870
5835 5837 5839 5840 5841 5843 5844 5843 5842 5844 5847 5850 5853 5855 5857 5860 5859 5860 5861 5862 5862 5864 5866 5867 5868 5869 5871 5871 5871 5872 5873 5872 5872 5872 5872 5870 5870 5868 5867 5866 5866 5867 5869 5868 5869
5830 5832 5833 5835 5837 5838 5840 5841 5840 5839 5841 5845 5848 5850 5853 5854 5856 5856 5858 5859 5860 5861 5863 5864 5865 5867 5868 5870 5870 5869 5871 5870 5870 5871 5870 5869 5869 5867 5867 5866 5866 5866 5868 5868 5869
5824 5826 5828 5830 5832 5833 5836 5837 5838 5838 5838 5840 5843 5845 5848 5849 5852 5853 5855 5856 5857 5859 5861 5862 5863 5864 5866 5867 5870 5869 5869 5868 5868 5868 5869 5868 5867 5867 5867 5866 5866 5866 5866 5866 5867
5818 5820 5823 5824 5827 5828 5831 5833 5834 5835 5835 5836 5838 5840 5844 5846 5847 5848 5850 5852 5854 5856 5858 5860 5860 5862 5863 5865 5869 5867 5867 5867 5867 5867 5867 5867 5866 5865 5865 5866 5865 5865 5864 5864 5864
5811 5813 5816 5818 5821 5823 5826 5828 5831 5832 5832 5833 5836 5836 5839 5841 5843 5844 5846 5847 5850 5852 5853 5856 5858 5859 5860 5862 5863 5865 5865 5865 5864 5864 5864 5864 5863 5862 5863 5864 5863 5863 5863 5862 5862
5803 5806 5809 5812 5815 5817 5820 5823 5825 5828 5829 5829 5831 5832 5834 5836 5838 5841 5843 5844 5845 5847 5849 5852 5854 5854 5856 5858 5859 5861 5862 5862 5860 5860 5860 5860 5860 5859 5859 5859 5861 5861 5861 5860 5860
5795 5799 5801 5805 5809 5811 5813 5817 5820 5822 5824 5826 5827 5828 5831 5833 5833 5836 5839 5840 5841 5843 5845 5847 5846 5849 5852 5854 5855 5856 5857 5857 5857 5857 5856 5856 5857 5856 5856 5856 5857 5857 5857 5857 5857
5787 5790 5794 5797 5803 5805 5807 5810 5814 5817 5819 5822 5823 5824 5826 5828 5829 5832 5833 5837 5839 5840 5841 5842 5842 5846 5847 5849 5851 5851 5851 5852 5852 5854 5854 5853 5854 5852 5853 5853 5853 5853 5854 5853 5853
5778 5781 5785 5789 5794 5798 5801 5804 5807 5811 5812 5816 5817 5822 5822 5824 5826 5828 5830 5831 5833 5835 5837 5837 5839 5841 5843 5843 5845 5845 5848 5848 5848 5849 5849 5850 5850 5852 5848 5849 5848 5849 5849 5849 5848
5768 5772 5776 5780 5784 5789 5793 5796 5801 5805 5804 5808 5812 5815 5817 5818 5821 5822 5824 5827 5829 5830 5831 5833 5836 5836 5837 5839 5840 5843 5843 5844 5844 5844 5846 5847 5848 5852 5841 5844 5845 5845 5845 5844 5844
5757 5761 5766 5769 5775 5780 5784 5788 5793 5794 5800 5803 5806 5810 5812 5814 5815 5817 5819 5821 5824 5827 5828 5829 5831 5832 5833 5834 5836 5838 5840 5840 5841 5840 5842 5842 5843 5842 5837 5839 5839 5839 5839 5839 5839
5745 5750 5755 5760 5764 5770 5774 5779 5783 5788 5794 5796 5801 5805 5807 5809 5811 5813 5815 5816 5818 5821 5823 5825 5826 5827 5829 5830 5831 5833 5834 5835 5837 5838 5839 5837 5837 5833 5835 5834 5833 5833 5834 5834 5833
5732 5738 5743 5749 5754 5758 5764 5769 5776 5781 5786 5790 5794 5798 5801 5804 5807 5808 5810 5811 5813 5816 5818 5820 5821 5821 5824 5826 5827 5826 5828 5830 5830 5831 5832 5834 5833 5831 5830 5830 5829 5828 5828 5827 5827
5717 5724 5731 5737 5743 5746 5752 5760 5766 5771 5778 5783 5787 5792 5795 5798 5800 5802 5804 5807 5808 5811 5812 5814 5815 5818 5820 5821 5822 5821 5824 5825 5824 5825 5826 5829 5828 5827 5824 5824 5823 5822 5822 5822 5821
5701 5708 5720 5724 5728 5734 5743 5750 5756 5763 5769 5775 5779 5783 5788 5791 5795 5797 5799 5803 5803 5805 5807 5809 5812 5813 5815 5816 5817 5818 5818 5819 5819 5819 5820 5823 5824 5820 5818 5818 5816 5816 5816 5816 5814
5684 5691 5703 5709 5716 5725 5731 5739 5745 5752 5759 5766 5770 5776 5780 5784 5788 5791 5793 5795 5799 5800 5802 5804 5805 5806 5809 5810 5811 5811 5813 5813 5811 5815 5814 5814 5818 5815 5811 5810 5809 5810 5811 5808 5807
5668 5677 5685 5693 5703 5712 5719 5726 5735 5742 5748 5756 5762 5767 5772 5777 5781 5784 5786 5790 5792 5795 5796 5799 5800 5802 5803 5806 5806 5806 5807 5806 5806 5806 5808 5808 5812 5808 5806 5803 5804 5805 5803 5802 5799
5654 5663 5670 5678 5689 5699 5706 5714 5723 5731 5736 5744 5752 5758 5764 5770 5773 5777 5780 5783 5786 5788 5791 5792 5794 5797 5799 5795 5799 5799 5796 5797 5798 5799 5803 5802 5803 5801 5796 5795 5799 5798 5796 5793 5791
5639 5648 5656 5665 5676 5687 5694 5702 5709 5718 5726 5733 5742 5748 5754 5760 5765 5769 5773 5777 5779 5782 5784 5786 5790 5791 5791 5791 5790 5789 5788 5789 5791 5793 5793 5798 5796 5795 5788 5791 5790 5790 5788 5786 5783
5627 5635 5645 5654 5663 5672 5679 5691 5697 5703 5714 5723 5731 5738 5743 5751 5756 5762 5765 5768 5771 5775 5777 5780 5782 5785 5785 5785 5784 5782 5782 5783 5784 5785 5786 5788 5788 5785 5787 5786 5783 5781 5780 5777 5775
5614 5624 5630 5640 5650 5657 5668 5676 5685 5690 5701 5711 5719 5726 5735 5740 5746 5752 5755 5759 5763 5769 5771 5773 5775 5779 5780 5780 5778 5779 5779 5778 5779 5779 5780 5780 5780 5779 5779 5778 5776 5775 5773 5772 5769